Regional Weather Roundup
Issued by NWS

Home | Current Version | Previous Version | Graphics & Text | Print | Product List | Glossary On
Versions: 1 2 3 4 5 6 7 8 9 10 11 12 13 14 15 16 17 18 19 20 21 22 23 24 25 26 27 28 29 30 31 32 33 34 35 36 37 38 39 40 41 42 43 44 45 46 47 48 49 50
000
ASUS43 KDMX 200501
RWRIA

WEATHER ROUNDUP FOR IOWA
NATIONAL WEATHER SERVICE DES MOINES IA
1200 AM CDT FRI APR 20 2018

NOTE: "FAIR" INDICATES FEW OR NO CLOUDS BELOW 12,000 FEET WITH NO
SIGNIFICANT WEATHER AND/OR OBSTRUCTIONS TO VISIBILITY.

* - THESE STATIONS ARE NOT NWS STATIONS...THUS NOT UNDER NWS
QUALITY CONTROL.  THEY ALSO DO NOT REPORT WEATHER SUCH
AS PRECIPITATION OR FOG.

IAZ001>003-012>014-020>022-031>034-043>046-200600-
   NORTHWEST IOWA

CITY           SKY/WX    TMP DP  RH WIND       PRES   REMARKS
CARROLL *      CLOUDY    34  30  86 CALM      30.45S
DENISON *      CLEAR     34  28  80 NE7       30.45S WCI  28
LE MARS *      CLOUDY    32  23  69 CALM      30.45R
ORANGE CITY *  CLOUDY    34  25  69 E6        30.44R WCI  29
SHELDON *      CLOUDY    32  25  74 E6        30.43R WCI  26
SIOUX CITY     CLEAR     34  22  61 E6        30.44R WCI  29
SPENCER        CLOUDY    25  20  81 E5        30.46S WCI  19
STORM LAKE *   CLOUDY    30  23  74 E7        30.44S WCI  23
$$

IAZ055>058-069>071-079>083-090>094-200600-
   SOUTHWEST IOWA

CITY           SKY/WX    TMP DP  RH WIND       PRES   REMARKS
ATLANTIC *     CLEAR     37  28  70 NE3       30.43S
AUDUBON *      CLOUDY    34  28  80 CALM      30.44F
CLARINDA *     CLOUDY    43  27  52 CALM      30.44S
COUNCIL BLFS * CLEAR     41  28  60 E8        30.41S
CRESTON *      CLEAR     36  25  64 E9        30.44R WCI  29
HARLAN  *      CLEAR     37  28  70 VRB5      30.47R WCI  34
LAMONI         PTCLDY    42  26  53 NE5       30.42R
RED OAK *      CLEAR     39  27  60 CALM      30.42S
SHENANDOAH *   PTCLDY    39  28  65 NE3       30.42S
$$

IAZ047>049-059>061-072>074-084-200600-
   CENTRAL IOWA

CITY           SKY/WX    TMP DP  RH WIND       PRES   REMARKS
AMES           CLEAR     34  26  72 NE5       30.46R WCI  30
ANKENY *       CLEAR     36  27  69 N7        30.47R WCI  30
BOONE *        CLEAR     34  28  80 NE8       30.45R WCI  27
CHARITON *     PTCLDY    39  25  56 NE6       30.44R WCI  35
DES MOINES     PTCLDY    41  26  55 NE8       30.45R
GRINNELL*      CLEAR     35  26  68 NE9       30.45S WCI  28
KNOXVILLE *    CLEAR     37  25  60 NE6       30.43R WCI  33
MARSHALLTOWN   CLEAR     32  26  78 NE7       30.45S WCI  26
NEWTON *       CLEAR     36  25  64 NE8       30.45S WCI  29
PELLA *        CLEAR     36  26  65 NE5       30.46R WCI  32
$$

IAZ004>006-015-016-023>025-035-036-200600-
   NORTH CENTRAL IOWA

CITY           SKY/WX    TMP DP  RH WIND       PRES   REMARKS
ALGONA *       CLOUDY    28  23  80 CALM      30.46S
CLARION *      CLOUDY    28  25  86 E3        30.46S
ESTHERVILLE    CLOUDY    22  18  85 NW3       30.45S
FORT DODGE *   CLOUDY    30  26  85 E5        30.46S WCI  25
MASON CITY     CLOUDY    25  20  81 CALM      30.47S
FOREST CITY *  FAIR      25  25 100 CALM      30.46F
IOWA FALLS *   FAIR      34  26  74 NE5       30.47S WCI  30
$$

IAZ007>011-017>019-026>030-037>042-050>054-066-200600-
   NORTHEAST IOWA

CITY           SKY/WX    TMP DP  RH WIND       PRES   REMARKS
CEDAR RAPIDS   FAIR      34  25  69 N6        30.44S WCI  29
CHARLES CITY * FAIR      30  23  74 CALM      30.47R
CLINTON *      FAIR      33  26  75 NE5       30.46S WCI  29
DECORAH *      FAIR      30  23  74 CALM      30.44S
DUBUQUE        FAIR      31  23  72 CALM      30.45R
MONTICELLO *   FAIR      28  27  93 CALM      30.46R
OELWEIN *      FAIR      32  30  93 N6        30.46S WCI  26
WATERLOO       FAIR      27  24  89 CALM      30.47R
$$

IAZ064-065-067-068-078-200600-
   EAST CENTRAL IOWA

CITY           SKY/WX    TMP DP  RH WIND       PRES   REMARKS
DAVENPORT      FAIR      33  25  72 NE6       30.47S WCI  28
IOWA CITY      FAIR      40  25  55 CALM      30.46S
MUSCATINE *    FAIR      36  25  64 NW3       30.46R
QUAD CITIES    FAIR      32  27  81 CALM      30.45S
$$

IAZ062-063-075>077-085>089-095>099-200600-
   SOUTHEAST IOWA

CITY           SKY/WX    TMP DP  RH WIND       PRES   REMARKS
BURLINGTON     CLEAR     41  25  53 NE6       30.43S
FAIRFIELD *    CLEAR     36  23  60 NE8       30.43S WCI  29
FORT MADISON * CLEAR     41  28  60 E6        30.44S
KEOKUK *       CLEAR     43  25  49 E8        30.43S
OSKALOOSA *    FAIR      34  25  70 NE8       30.44S WCI  27
CENTERVILLE *    N/A     39  25  56 CALM      30.44R
OTTUMWA        CLEAR     38  25  59 NE8       30.43S WCI  32
WASHINGTON *   CLEAR     34  25  69 NE8       30.45F WCI  27
$$

ABBREVIATIONS USED IN REMARKS
   TC - TEMPERATURES IN CELSIUS
  WCI - WIND CHILL INDEX
   HX - HEAT INDEX
  VSB - VISIBILITY
$$





USA.gov is the U.S. government's official web portal to all federal, state and local government web resources and services.